Location: Brantley
(31.5822°N, 86.2569°W)
Time: 20:56:02
(UTC+00:00)

Transit 2A Rocket - Pass Details

Date: 19 February 2026
Orbit: 583 x 900 km, 66.7° (Epoch: 8 March)

Event Time Altitude Azimuth Distance (km) Brightness Sun altitude
Rises 06:44:00 0° 336° (NNW) 3,291 - -67.2°
Reaches altitude 10° 06:46:32 10° 338° (NNW) 2,308 - -66.9°
Maximum altitude 06:51:47 74° 64° (ENE) 744 - -66.3°
Drops below altitude 10° 06:56:31 10° 149° (SSE) 2,087 - -65.7°
Sets 06:58:43 0° 151° (SSE) 2,952 - -65.4°
